Tracking 23610 objects as of 19-Sep-2021
HD Live streaming from Space Station
objects crossing your sky now

STARLINK-2572

Track STARLINK-2572 now!
10-day predictions
STARLINK-2572 is classified as:


NORAD ID: 48372
Int'l Code: 2021-038V
Perigee: 552.8 km
Apogee: 555.9 km
Inclination: 53.1 °
Period: 95.6 minutes
Semi major axis: 6925 km
RCS: Unknown
Launch date: May 4, 2021
Source: United States (US)
Launch site: AIR FORCE EASTERN TEST RANGE (AFETR)
aabbcc
Your satellite tracking list
Your tracking list is empty




NASA's NSSDC Master Catalog

Two Line Element Set (TLE):
1 48372U 21038V   21261.03168891  .00001096  00000-0  92469-4 0  9996
2 48372  53.0553 125.3815 0002200  80.2355 279.8882 15.06403226 20936
Source of the keplerian elements: AFSPC